This demonstration page uses our WeatherBlox Daily Observations layout. Learn more.

36.17497, -115.13722

Hourly Observations for May 29, 2015

Temp ( °F °C ) Dew Point ( °F °C ) Humidity (%) Winds ( mph kmh ) Pressure ( in mb ) Visibility ( mi km ) Precip ( " mm )
12:53 am 00:53 Clear 83 28.3 30 -1.1 15 15 WNW 7 11 29.83 1010 10 16.0934 0 0
1:53 am 01:53 Clear 79 26.1 29 -1.7 16 16 ENE 6 9 29.85 1011 10 16.0934 0 0
2:53 am 02:53 Clear 79 26.1 26 -3.3 14 14 E 8 13 29.85 1011 10 16.0934 0 0
3:53 am 03:53 Clear 79 26.1 33 0.6 19 19 ENE 7 11 29.86 1011 10 16.0934 0 0
4:53 am 04:53 Clear 78 25.6 37 2.8 23 23 ENE 6 9 29.87 1012 10 16.0934 0 0
5:53 am 05:53 Sunny 75 23.9 36 2.2 24 24 Calm 29.9 1012 10 16.0934 0 0
6:53 am 06:53 Sunny 77 25 37 2.8 24 24 Calm 29.93 1013 10 16.0934 0 0
7:53 am 07:53 Sunny 80 26.7 36 2.2 20 20 SSE 3 6 29.94 1014 10 16.0934 0 0
8:53 am 08:53 Sunny 84 28.9 36 2.2 18 18 E 5 7 29.95 1014 10 16.0934 0 0
9:53 am 09:53 Sunny 87 30.6 31 -0.6 13 13 ESE 10 17 29.94 1014 10 16.0934 0 0
10:53 am 10:53 Sunny 89 31.7 24 -4.4 9 9 SSE 8 13 29.94 1014 10 16.0934 0 0
11:53 am 11:53 Sunny 91 32.8 22 -5.6 8 8 VRB 5 7 29.93 1013 10 16.0934 0 0
12:53 pm 12:53 Sunny 92 33.3 22 -5.6 8 8 SW 7 11 29.91 1013 10 16.0934 0 0
1:53 pm 13:53 Sunny 94 34.4 22 -5.6 7 7 S 8 13 29.88 1012 10 16.0934 0 0
2:53 pm 14:53 Sunny 95 35 19 -7.2 6 6 Calm 29.85 1011 10 16.0934 0 0
3:53 pm 15:53 Sunny 97 36.1 20 -6.7 6 6 undefined N/A 29.82 1010 10 16.0934 0 0
4:53 pm 16:53 Sunny 97 36.1 20 -6.7 6 6 SE 9 15 29.81 1010 10 16.0934 0 0
5:53 pm 17:53 Sunny 97 36.1 19 -7.2 6 6 SSE 9 15 29.8 1009 10 16.0934 0 0
6:53 pm 18:53 Sunny 96 35.6 20 -6.7 6 6 ESE 6 9 29.8 1009 10 16.0934 0 0
7:53 pm 19:53 Clear 94 34.4 19 -7.2 6 6 SSE 12 19 29.81 1009 10 16.0934 0 0
8:53 pm 20:53 Clear 91 32.8 19 -7.2 7 7 S 8 13 29.83 1010 10 16.0934 0 0
9:53 pm 21:53 Clear 90 32.2 18 -7.8 7 7 SSW 6 9 29.84 1011 10 16.0934 0 0
10:53 pm 22:53 Clear 87 30.6 18 -7.8 8 8 WSW 5 7 29.85 1011 10 16.0934 0 0
11:53 pm 23:53 Clear 84 28.9 17 -8.3 8 8 ESE 3 6 29.86 1011 10 16.0934 0 0

Powered by AerisWeather